Flag for Norway Weather past 2 weeks in Bergen, Norway

Now
37 °F

Chilly.


Feels Like: 37 °F
Forecast: 30 / 51 °F
Wind: 2 mph from Southeast

Location: Bergen / Florida

Current Time: Apr 27, 2015 at 4:00:51 AM

Latest Report: Apr 27, 2015 at 3:00 AM


Visibility: N/A

Pressure: 29.65 "Hg

Humidity: 82%

Dew point: 32 °F

Location of BergenLocation

Historic Weather in Bergen — Graph

°F

Bergen temperature yesterday

Maximum temperature yesterday: 46 °F (at 3:00 PM)
Minimum temperature yesterday: 36 °F (at 3:00 AM)
Average temperature yesterday: 41 °F

Past Weeks' High & Low Weather Summary

 TemperatureHumidityPressure
High65 °F (Apr 20, 2:00 PM)89% (Apr 21, 4:00 AM)30.46 "Hg (Apr 21, 4:00 AM)
Low35 °F (Apr 13, 6:00 AM)26% (Apr 20, 2:00 PM)29.23 "Hg (Apr 25, 1:00 PM)
Average44 °F70%29.99 "Hg
* Reported Apr 12 2:00 AM — Apr 27 2:00 AM, Bergen, Weather by CustomWeather, © 2015

Note: Actual official high and low records may vary slightly from our data, if they occured in-between our weather recording intervals... More about our weather records

Advertising

Bergen weather history for previous 24 hours

 ConditionsComfort  
Time TempWeatherWind HumidityBarometerVisibility
2:00 AM
Mon, Apr 27
38 °FChilly.3 mph80%29.66 "HgN/A
1:00 AM38 °FChilly.3 mph80%29.67 "HgN/A
12:00 AM38 °FChilly.3 mph79%29.67 "HgN/A
11:00 PM
Sun, Apr 26
39 °FPassing clouds.3 mph79%29.67 "Hg19 mi
10:00 PM39 °FChilly.3 mph78%29.67 "HgN/A
9:00 PM42 °FQuite cool.2 mph63%29.66 "HgN/A
8:00 PM42 °FScattered clouds.3 mph61%29.65 "Hg25 mi
7:00 PM44 °FQuite cool.2 mph59%29.65 "HgN/A
6:00 PM44 °FQuite cool.3 mph58%29.64 "HgN/A
5:00 PM45 °FPartly sunny.3 mph57%29.63 "Hg19 mi
4:00 PM45 °FCool.5 mph67%29.63 "HgN/A
3:00 PM46 °FCool.5 mph60%29.62 "HgN/A
2:00 PM45 °FPartly sunny.6 mph68%29.60 "Hg19 mi
1:00 PM43 °FQuite cool.N/A69%29.58 "HgN/A
12:00 PM44 °FQuite cool.5 mph64%29.55 "HgN/A
11:00 AM43 °FOvercast.2 mph78%29.53 "Hg19 mi
10:00 AM40 °FQuite cool.2 mph79%29.50 "HgN/A
9:00 AM39 °FChilly.1 mph81%29.50 "HgN/A
8:00 AM40 °FOvercast.6 mph82%29.47 "Hg19 mi
7:00 AM39 °FChilly.2 mph85%29.47 "HgN/A
6:00 AM37 °FChilly.3 mph86%29.44 "HgN/A
4:00 AM36 °FChilly.3 mph86%29.44 "HgN/A
Weather by CustomWeather, © 2015

See weather overviewHow to use our weather pages